TimeCDT,TemperatureF,Dew PointF,Humidity,Sea Level PressureIn,VisibilityMPH,Wind Direction,Wind SpeedMPH,Gust SpeedMPH,PrecipitationIn,Events,Conditions,WindDirDegrees,DateUTC
12:53 AM,55.0,52.0,89,30.08,10.0,Calm,Calm,-,N/A,,Clear,0,2013-07-03 05:53:00
1:53 AM,55.0,52.0,89,30.07,10.0,Calm,Calm,-,N/A,,Clear,0,2013-07-03 06:53:00
2:53 AM,54.0,51.1,90,30.06,10.0,SW,3.5,-,N/A,,Clear,230,2013-07-03 07:53:00
3:53 AM,54.0,51.1,90,30.07,10.0,Calm,Calm,-,N/A,,Clear,0,2013-07-03 08:53:00
4:53 AM,55.0,51.1,86,30.07,10.0,Calm,Calm,-,N/A,,Clear,0,2013-07-03 09:53:00
5:53 AM,55.0,52.0,89,30.09,10.0,West,5.8,-,N/A,,Clear,280,2013-07-03 10:53:00
6:53 AM,59.0,54.0,83,30.09,10.0,West,3.5,-,N/A,,Clear,280,2013-07-03 11:53:00
7:53 AM,61.0,54.0,78,30.11,10.0,Calm,Calm,-,N/A,,Clear,0,2013-07-03 12:53:00
8:53 AM,68.0,51.1,55,30.12,10.0,SW,5.8,-,N/A,,Clear,230,2013-07-03 13:53:00
9:53 AM,70.0,54.0,57,30.12,10.0,WSW,4.6,-,N/A,,Clear,240,2013-07-03 14:53:00
10:53 AM,73.9,57.0,55,30.12,10.0,NW,4.6,-,N/A,,Clear,320,2013-07-03 15:53:00
11:53 AM,78.1,54.0,43,30.10,10.0,Calm,Calm,-,N/A,,Clear,0,2013-07-03 16:53:00
12:53 PM,77.0,54.0,45,30.10,10.0,WSW,6.9,-,N/A,,Partly Cloudy,250,2013-07-03 17:53:00
1:53 PM,80.1,54.0,40,30.07,10.0,Calm,Calm,-,N/A,,Scattered Clouds,0,2013-07-03 18:53:00
2:53 PM,79.0,55.0,44,30.06,10.0,NE,4.6,-,N/A,,Partly Cloudy,40,2013-07-03 19:53:00
3:53 PM,78.1,55.9,46,30.06,10.0,ESE,5.8,-,N/A,,Mostly Cloudy,110,2013-07-03 20:53:00
4:53 PM,80.1,53.1,39,30.04,10.0,NE,3.5,-,N/A,,Partly Cloudy,40,2013-07-03 21:53:00
5:53 PM,79.0,53.1,40,30.03,10.0,Calm,Calm,-,N/A,,Clear,0,2013-07-03 22:53:00
6:53 PM,79.0,54.0,42,30.03,10.0,SE,4.6,-,N/A,,Clear,130,2013-07-03 23:53:00
7:53 PM,75.9,57.0,52,30.04,10.0,Calm,Calm,-,N/A,,Clear,0,2013-07-04 00:53:00
8:53 PM,68.0,59.0,73,30.04,10.0,Calm,Calm,-,N/A,,Clear,0,2013-07-04 01:53:00
9:53 PM,68.0,59.0,73,30.06,10.0,SE,4.6,-,N/A,,Clear,140,2013-07-04 02:53:00
10:53 PM,68.0,57.0,68,30.07,10.0,Calm,Calm,-,N/A,,Partly Cloudy,0,2013-07-04 03:53:00
11:53 PM,64.0,57.0,78,30.08,10.0,Calm,Calm,-,N/A,,Clear,0,2013-07-04 04:53:00